Orangeburg, SC

8:12 AM EDT on September 22, 2017 (GMT -0400)
Orangeburg Municipal

Weather History for KOGB - May, 2013

Change the Weather History Date:

Thursday, May 16, 2013

  Actual Average Record
Temperature  
Mean Temperature 72 °F 72 °F  
Max Temperature 83 °F 84 °F 95 °F (1982)
Min Temperature 60 °F 60 °F 45 °F (1981)
Degree Days  
Heating Degree Days 0 0  
Month to date heating degree days 24 10  
Since 1 July heating degree days 2180 2327  
Cooling Degree Days 7 7  
Month to date cooling degree days 46 84  
Year to date cooling degree days 136 169  
Growing Degree Days 22 (Base 50)    
Moisture  
Dew Point 61 °F    
Average Humidity 69    
Maximum Humidity 90    
Minimum Humidity 51    
Precipitation  
Precipitation 0.00 in 0.09 in 1.53 in (1976)
Month to date precipitation 1.50 1.33  
Year to date precipitation 16.30 15.73  
Sea Level Pressure  
Sea Level Pressure 30.03 in    
Wind  
Wind Speed 5 mph (SW)    
Max Wind Speed 13 mph    
Max Gust Speed 15 mph    
Visibility 10 miles    
Events      
T = Trace of Precipitation, MM = Missing Value Source: NWS Daily Summary

Daily Weather History Graph

Daily Weather History Graph

Search for Another Location

Airport or City:

Trip Planner

Search our weather history database for the weather conditions in past years. The results will help you decide how hot, cold, wet, or windy it might be!

Date:

Astronomy

May. 16, 2013 Rise Set
Actual Time 6:22 AM EDT 8:17 PM EDT
Civil Twilight 5:54 AM EDT 8:45 PM EDT
Nautical Twilight 5:21 AM EDT 9:18 PM EDT
Astronomical Twilight 4:45 AM EDT 9:54 PM EDT
Moon 11:48 AM EDT (5/16) 12:42 AM EDT (5/16)
Length of Visible Light 14h 50m
Length of Day
13h 55m
Waxing Crescent, 35% of the Moon is Illuminated
May 16
Waxing Crescent
May 18
First Quarter
May 25
Full
May 31
Last Quarter
Jun 8
New

Hourly Weather History & Observations

Time (EDT) Temp. Heat Index Dew Point Humidity Pressure Visibility Wind Dir Wind Speed Gust Speed Precip Events Conditions
12:53 AM 68.0 °F - 57.9 °F 70% 30.02 in 10.0 mi SSW 4.6 mph - N/A   Clear
1:53 AM 66.0 °F - 57.9 °F 75% 30.01 in 10.0 mi Calm Calm - N/A   Clear
2:53 AM 66.0 °F - 57.9 °F 75% 30.00 in 10.0 mi Calm Calm - N/A   Clear
3:53 AM 62.1 °F - 57.9 °F 86% 29.99 in 10.0 mi SSW 4.6 mph - N/A   Clear
4:53 AM 61.0 °F - 57.9 °F 90% 30.00 in 10.0 mi SSW 4.6 mph - N/A   Clear
5:53 AM 61.0 °F - 57.0 °F 87% 30.00 in 10.0 mi SW 3.5 mph - N/A   Clear
6:53 AM 61.0 °F - 57.9 °F 90% 30.02 in 8.0 mi Calm Calm - N/A   Clear
7:53 AM 64.0 °F - 59.0 °F 84% 30.04 in 10.0 mi SW 4.6 mph - N/A   Clear
8:53 AM 71.1 °F - 60.1 °F 68% 30.05 in 10.0 mi WSW 6.9 mph - N/A   Clear
9:53 AM 75.0 °F - 61.0 °F 62% 30.06 in 10.0 mi West 6.9 mph - N/A   Clear
11:53 AM 81.0 °F 81.9 °F 62.1 °F 52% 30.07 in 10.0 mi WSW 8.1 mph - N/A   Clear
12:53 PM 80.1 °F 81.2 °F 62.1 °F 54% 30.06 in 10.0 mi WSW 8.1 mph - N/A   Clear
1:53 PM 80.1 °F 81.5 °F 63.0 °F 56% 30.05 in 10.0 mi SW 10.4 mph - N/A   Clear
2:53 PM 81.0 °F 82.5 °F 64.0 °F 56% 30.04 in 10.0 mi SW 8.1 mph - N/A   Clear
3:53 PM 81.0 °F 82.2 °F 63.0 °F 54% 30.02 in 10.0 mi WSW 5.8 mph - N/A   Clear
4:53 PM 82.9 °F 84.0 °F 63.0 °F 51% 30.01 in 10.0 mi West 9.2 mph - N/A   Clear
6:53 PM 80.1 °F 81.5 °F 63.0 °F 56% 30.00 in 9.0 mi SW 4.6 mph - N/A   Clear
7:53 PM 78.1 °F - 64.0 °F 62% 30.01 in 10.0 mi SSW 5.8 mph - N/A   Clear
8:53 PM 75.0 °F - 63.0 °F 66% 30.02 in 10.0 mi SSW 4.6 mph - N/A   Clear
9:53 PM 72.0 °F - 63.0 °F 73% 30.04 in 10.0 mi Calm Calm - N/A   Clear
10:53 PM 70.0 °F - 63.0 °F 78% 30.05 in 10.0 mi Calm Calm - N/A   Clear
11:53 PM 69.1 °F - 64.0 °F 84% 30.05 in 10.0 mi Calm Calm - N/A   Clear